Погода в Вяткине

Россия / Владимирская область     56°03′33″N   40°29′32″E
темп.,
°C
ветер,
м/с
пор.,
м/с
влажн.,
%
обл.,
%
осадки,
мм/ч
давл.,
гПа
погр.,
м
19 января, вт
вт1900:00−19ссв1296100 0.0 101929
03:00−19юв1196100 0.0 101922
06:00−19ссв0096100 0.0 101820
09:00−18з0096100 0.0 101822
12:00−15зсз1191100 0.0 1018213
15:00−14сз1295100 0.1 1017205
18:00−15з1197100 0.4 101752
21:00−15зсз2297100 0.8 101777
20 января, ср
ср2000:00−15зсз2297100 0.1 101651
03:00−16зсз249799 0.3 101793
06:00−15зсз249787 0.1 1017117
09:00−14з259790 0.3 1018138
12:00−11зсз259494 0.1 1018266
15:00−11з369594 0.2 1019299
18:00−14з369787 0.0 1020105
21:00−16зюз369756 0.0 102097
21 января, чт
чт2100:00−17зюз259716 0.0 102188
03:00−17юз389628 0.0 1021157
06:00−16ююз3891100 0.0 1019234
09:00−14ююз41089100 0.0 1017321
12:00−12ю61394100 0.1 1013425
15:00−10юз61393100 1.4 1010741
18:00−8юз51293100 0.7 1009676
21:00−6зюз41195100 1.8 1008583
22 января, пт
пт2200:00−5зюз41196100 1.0 1007473
03:000зюз41296100 2.1 1007462
06:00+1зюз41098100 0.6 1007370
09:000зюз3898100 1.1 1008290
12:00+1зюз4899100 0.4 1009342
15:00+1юз3899100 0.4 1009359
18:00+1юз3897100 0.0 1009364
21:000юз4897100 0.0 1009513
23 января, сб
сб2300:00+1ююз41099100 0.2 1009431
03:00+1юз41097100 0.6 1009434
06:00+1ююз4109899 0.2 1009399
09:00+1ююз4109599 0.8 1009476
12:00+1ююз51297100 0.8 1009493
15:00+1ююз411100100 1.9 1009399
18:00+1ююз41098100 0.1 1010335
21:00+1юз2799100 0.1 1011277